This is the latest recevied weather packets stored in our database for station/object KG5TTF. If no packets are shown the sender has not sent any weather packets the latest 10 day(s).
| Time | Temp. | Humidity | Pressure | Rain* | Wind** | Luminosity | Snow |
|---|---|---|---|---|---|---|---|
| 1778002752 | 1.11° C | 99% | 1017.1 hPa | 0 mm | - | 141 W/m² | - |
| 1778002448 | 1.11° C | 99% | 1017.1 hPa | 0 mm | - | 167 W/m² | - |
| 1778002145 | 1.11° C | 99% | 1017.1 hPa | 0 mm | - | 169 W/m² | - |
| 1778001843 | 1.11° C | 99% | 1017.2 hPa | 1.78 mm | - | 138 W/m² | - |
| 1778001543 | 1.11° C | 99% | 1017.4 hPa | 1.78 mm | - | 109 W/m² | - |
| 1778001240 | 1.11° C | 99% | 1017.5 hPa | 0 mm | - | 149 W/m² | - |
| 1778000936 | 1.11° C | 99% | 1017.4 hPa | 0 mm | - | 126 W/m² | - |
| 1778000634 | 1.11° C | 99% | 1017.5 hPa | 0 mm | - | 137 W/m² | - |
| 1778000328 | 1.11° C | 99% | 1017.4 hPa | 0 mm | - | 121 W/m² | - |
| 1778000024 | 1.11° C | 99% | 1017.5 hPa | 1.78 mm | - | 84 W/m² | - |
| 1777999720 | 1.11° C | 99% | 1017.6 hPa | 1.78 mm | - | 86 W/m² | - |
| 1777999417 | 1.11° C | 99% | 1017.4 hPa | 0 mm | - | 86 W/m² | - |
| 1777999115 | 0.56° C | 99% | 1017.5 hPa | 0 mm | - | 104 W/m² | - |
| 1777998814 | 0.56° C | 99% | 1017.7 hPa | 0 mm | - | 99 W/m² | - |
| 1777998512 | 0.56° C | 99% | 1017.6 hPa | 1.27 mm | - | 90 W/m² | - |
| 1777998208 | 0.56° C | 99% | 1017.6 hPa | 1.27 mm | - | 81 W/m² | - |
| 1777997905 | 0.56° C | 99% | 1017.7 hPa | 0 mm | - | 83 W/m² | - |
| 1777997602 | 0.56° C | 99% | 1017.7 hPa | 0 mm | - | 85 W/m² | - |
| 1777997299 | 0.56° C | 99% | 1017.7 hPa | 0 mm | - | 70 W/m² | - |
| 1777996997 | 0.56° C | 99% | 1017.5 hPa | 0 mm | - | 80 W/m² | - |
| 1777996689 | 1.11° C | 99% | 1017.6 hPa | 0 mm | - | 85 W/m² | - |
| 1777996384 | 0.56° C | 99% | 1017.5 hPa | 1.78 mm | - | 55 W/m² | - |
| 1777996081 | 0.56° C | 99% | 1017.7 hPa | 1.78 mm | - | 69 W/m² | - |
| 1777995777 | 0.56° C | 99% | 1017.7 hPa | 0 mm | - | 78 W/m² | - |
| 1777995473 | 0.56° C | 99% | 1017.7 hPa | 0 mm | - | 90 W/m² | - |
* Rain latest hour (hover to see other rain measurements)
** Current wind speed in m/s (hover to see current wind gust speed)